Location: Bellerive
(46.9237°N, 7.0223°E)
Time: 06:20:38
(UTC+00:00)

IRIDIUM 114 - Pass Details

Date: 09 April 2020
Orbit: 776 x 779 km, 86.4° (Epoch: 29 May)

Event Time Altitude Azimuth Distance (km) Brightness Sun altitude
Rises 18:47:20 0° 356° (N) 3,275 7.9 -6.5°
Reaches altitude 10° 18:49:41 10° 356° (N) 2,343 7.2 -6.9°
Maximum altitude 18:54:57 87° 269° (W) 787 4.4 -7.7°
Drops below altitude 10° 19:00:10 10° 180° (S) 2,323 6.6 -8.6°
Sets 19:02:29 0° 180° (S) 3,246 7.3 -8.9°
